Time,TemperatureF,DewpointF,PressureIn,WindDirection,WindDirectionDegrees,WindSpeedMPH,WindSpeedGustMPH,Humidity,HourlyPrecipIn,Conditions,Clouds,dailyrainin,SoftwareType,DateUTC
2013-06-30 00:02:00,57.0,49.0,29.80,NNE,28,1.0,5.0,74,0.00,,,0.03,,2013-06-30 06:02:00,
2013-06-30 00:23:00,56.0,49.0,29.82,NNW,347,5.0,7.0,76,0.00,,,0.03,,2013-06-30 06:23:00,
2013-06-30 00:34:00,56.0,49.0,29.84,NNW,344,1.0,3.0,76,0.00,,,0.03,,2013-06-30 06:34:00,
2013-06-30 00:43:00,56.0,48.0,29.88,NNW,344,3.0,5.0,75,0.00,,,0.03,,2013-06-30 06:43:00,
2013-06-30 00:53:00,56.0,48.0,29.88,NNW,344,2.0,5.0,75,0.00,,,0.03,,2013-06-30 06:53:00,
2013-06-30 01:02:00,56.0,48.0,29.89,NNW,344,1.0,3.0,75,0.00,,,0.03,,2013-06-30 07:02:00,
2013-06-30 01:12:00,55.0,47.0,29.89,NNW,344,1.0,2.0,75,0.00,,,0.03,,2013-06-30 07:12:00,
2013-06-30 01:22:00,55.0,47.0,29.89,NNW,344,1.0,2.0,75,0.00,,,0.03,,2013-06-30 07:22:00,
2013-06-30 01:33:00,55.0,48.0,29.90,NNW,344,0.0,3.0,76,0.00,,,0.03,,2013-06-30 07:33:00,
2013-06-30 01:44:00,55.0,48.0,29.91,NW,307,2.0,3.0,77,0.00,,,0.03,,2013-06-30 07:44:00,
2013-06-30 01:53:00,56.0,48.0,29.90,NW,307,1.0,3.0,75,0.00,,,0.03,,2013-06-30 07:53:00,
2013-06-30 02:02:00,56.0,48.0,29.90,West,278,2.0,3.0,75,0.00,,,0.03,,2013-06-30 08:02:00,
2013-06-30 02:11:00,55.0,48.0,29.89,ENE,66,0.0,3.0,76,0.00,,,0.03,,2013-06-30 08:11:00,
2013-06-30 02:22:00,55.0,48.0,29.88,NNE,19,2.0,3.0,77,0.00,,,0.03,,2013-06-30 08:22:00,
2013-06-30 02:33:00,54.0,47.0,29.89,NNE,18,0.0,2.0,78,0.00,,,0.03,,2013-06-30 08:33:00,
2013-06-30 02:42:00,54.0,48.0,29.90,NW,314,1.0,2.0,79,0.00,,,0.03,,2013-06-30 08:42:00,
2013-06-30 02:53:00,55.0,48.0,29.89,NW,314,2.0,5.0,78,0.00,,,0.03,,2013-06-30 08:53:00,
2013-06-30 03:01:00,55.0,48.0,29.90,NW,314,1.0,5.0,78,0.00,,,0.03,,2013-06-30 09:01:00,
2013-06-30 03:12:00,54.0,47.0,29.90,NW,314,0.0,3.0,78,0.00,,,0.03,,2013-06-30 09:12:00,
2013-06-30 03:23:00,54.0,48.0,29.91,NW,314,0.0,1.0,80,0.00,,,0.03,,2013-06-30 09:23:00,
2013-06-30 03:33:00,53.0,47.0,29.90,West,275,2.0,6.0,80,0.00,,,0.03,,2013-06-30 09:33:00,
2013-06-30 03:43:00,54.0,48.0,29.88,West,273,2.0,6.0,79,0.00,,,0.03,,2013-06-30 09:43:00,
2013-06-30 03:53:00,54.0,48.0,29.88,West,273,1.0,3.0,79,0.00,,,0.03,,2013-06-30 09:53:00,
2013-06-30 04:02:00,53.0,47.0,29.88,West,273,0.0,1.0,80,0.00,,,0.03,,2013-06-30 10:02:00,
2013-06-30 04:11:00,53.0,47.0,29.88,West,273,1.0,2.0,81,0.00,,,0.03,,2013-06-30 10:11:00,
2013-06-30 04:22:00,53.0,48.0,29.90,West,273,0.0,1.0,82,0.00,,,0.03,,2013-06-30 10:22:00,
2013-06-30 04:33:00,53.0,48.0,29.91,West,273,1.0,3.0,82,0.00,,,0.03,,2013-06-30 10:33:00,
2013-06-30 04:42:00,52.0,47.0,29.92,West,273,0.0,3.0,83,0.00,,,0.03,,2013-06-30 10:42:00,
2013-06-30 04:53:00,52.0,47.0,29.94,West,273,0.0,2.0,83,0.00,,,0.03,,2013-06-30 10:53:00,
2013-06-30 05:02:00,52.0,47.0,29.94,West,273,0.0,1.0,83,0.00,,,0.03,,2013-06-30 11:02:00,
2013-06-30 05:11:00,52.0,47.0,29.94,West,273,0.0,1.0,83,0.00,,,0.03,,2013-06-30 11:11:00,
2013-06-30 05:22:00,52.0,47.0,29.93,West,273,0.0,1.0,83,0.00,,,0.03,,2013-06-30 11:22:00,
2013-06-30 05:33:00,52.0,47.0,29.91,West,273,1.0,3.0,84,0.00,,,0.03,,2013-06-30 11:33:00,
2013-06-30 05:43:00,52.0,47.0,29.88,West,273,1.0,2.0,84,0.00,,,0.03,,2013-06-30 11:43:00,
2013-06-30 05:53:00,52.0,48.0,29.88,West,273,2.0,3.0,85,0.00,,,0.03,,2013-06-30 11:53:00,
2013-06-30 06:01:00,53.0,48.0,29.87,West,273,1.0,5.0,84,0.00,,,0.03,,2013-06-30 12:01:00,
2013-06-30 06:11:00,53.0,49.0,29.86,West,276,2.0,3.0,85,0.00,,,0.03,,2013-06-30 12:11:00,
2013-06-30 06:24:00,53.0,49.0,29.86,West,279,0.0,5.0,85,0.00,,,0.03,,2013-06-30 12:24:00,
2013-06-30 06:33:00,53.0,49.0,29.85,West,280,1.0,3.0,86,0.00,,,0.03,,2013-06-30 12:33:00,
2013-06-30 06:43:00,53.0,49.0,29.85,West,280,1.0,2.0,86,0.00,,,0.03,,2013-06-30 12:43:00,
2013-06-30 06:52:00,53.0,49.0,29.85,West,280,1.0,2.0,85,0.00,,,0.03,,2013-06-30 12:52:00,
2013-06-30 07:02:00,53.0,49.0,29.85,NNE,22,1.0,5.0,86,0.00,,,0.03,,2013-06-30 13:02:00,
2013-06-30 07:12:00,53.0,49.0,29.85,NNE,22,7.0,12.0,86,0.00,,,0.03,,2013-06-30 13:12:00,
2013-06-30 07:22:00,53.0,49.0,29.85,NNE,28,0.0,7.0,86,0.00,,,0.03,,2013-06-30 13:22:00,
2013-06-30 07:33:00,54.0,50.0,29.85,SSW,211,5.0,6.0,85,0.00,,,0.03,,2013-06-30 13:33:00,
2013-06-30 07:43:00,55.0,50.0,29.86,SW,216,5.0,7.0,83,0.00,,,0.03,,2013-06-30 13:43:00,
2013-06-30 07:53:00,56.0,51.0,29.84,West,264,2.0,7.0,84,0.00,,,0.03,,2013-06-30 13:53:00,
2013-06-30 08:02:00,56.0,51.0,29.83,West,276,2.0,6.0,82,0.00,,,0.03,,2013-06-30 14:02:00,
2013-06-30 08:11:00,57.0,51.0,29.83,West,263,3.0,6.0,79,0.00,,,0.03,,2013-06-30 14:11:00,
2013-06-30 08:22:00,59.0,50.0,29.82,SSW,213,5.0,10.0,73,0.00,,,0.03,,2013-06-30 14:22:00,
2013-06-30 08:33:00,61.0,50.0,29.83,WNW,290,2.0,10.0,67,0.00,,,0.03,,2013-06-30 14:33:00,
2013-06-30 08:44:00,62.0,51.0,29.83,NNW,331,1.0,5.0,68,0.00,,,0.03,,2013-06-30 14:44:00,
2013-06-30 08:52:00,63.0,51.0,29.82,NE,43,1.0,3.0,65,0.00,,,0.03,,2013-06-30 14:52:00,
2013-06-30 09:02:00,63.0,53.0,29.82,NNE,21,4.0,7.0,69,0.00,,,0.03,,2013-06-30 15:02:00,
2013-06-30 09:12:00,63.0,52.0,29.81,North,4,5.0,7.0,68,0.00,,,0.03,,2013-06-30 15:12:00,
2013-06-30 09:23:00,63.0,53.0,29.82,NNE,22,9.0,12.0,70,0.00,,,0.03,,2013-06-30 15:23:00,
2013-06-30 09:34:00,64.0,52.0,29.83,NE,50,7.0,12.0,66,0.00,,,0.03,,2013-06-30 15:34:00,
2013-06-30 09:44:00,67.0,54.0,29.83,NE,45,7.0,10.0,64,0.00,,,0.03,,2013-06-30 15:44:00,
2013-06-30 10:01:00,69.0,52.0,29.79,ESE,110,5.0,10.0,54,0.00,,,0.03,,2013-06-30 16:01:00,
2013-06-30 10:11:00,67.0,50.0,29.79,East,90,6.0,10.0,55,0.00,,,0.03,,2013-06-30 16:11:00,
2013-06-30 10:21:00,66.0,50.0,29.80,NE,53,7.0,12.0,56,0.00,,,0.03,,2013-06-30 16:21:00,
2013-06-30 10:34:00,66.0,51.0,29.82,East,87,6.0,12.0,59,0.00,,,0.03,,2013-06-30 16:34:00,
2013-06-30 10:44:00,66.0,49.0,29.83,East,91,7.0,12.0,55,0.00,,,0.03,,2013-06-30 16:44:00,
2013-06-30 10:53:00,69.0,51.0,29.83,East,79,9.0,13.0,52,0.00,,,0.03,,2013-06-30 16:53:00,
2013-06-30 11:01:00,68.0,51.0,29.82,East,89,11.0,16.0,54,0.00,,,0.03,,2013-06-30 17:01:00,
2013-06-30 11:11:00,70.0,52.0,29.81,East,94,9.0,16.0,53,0.00,,,0.03,,2013-06-30 17:11:00,
2013-06-30 11:23:00,69.0,51.0,29.78,East,91,12.0,17.0,53,0.00,,,0.03,,2013-06-30 17:23:00,
2013-06-30 11:34:00,67.0,51.0,29.81,NE,54,12.0,18.0,57,0.00,,,0.03,,2013-06-30 17:34:00,
2013-06-30 11:43:00,65.0,51.0,29.85,NE,55,13.0,18.0,61,0.00,,,0.03,,2013-06-30 17:43:00,
2013-06-30 12:12:00,60.0,54.0,29.92,ESE,107,4.0,8.0,80,0.10,,,0.13,,2013-06-30 18:12:00,
2013-06-30 12:22:00,60.0,54.0,29.93,SE,128,2.0,5.0,81,0.10,,,0.13,,2013-06-30 18:22:00,
2013-06-30 12:34:00,60.0,53.0,29.93,East,87,5.0,8.0,79,0.10,,,0.13,,2013-06-30 18:34:00,
2013-06-30 12:43:00,60.0,54.0,29.94,SE,128,1.0,8.0,80,0.11,,,0.14,,2013-06-30 18:43:00,
2013-06-30 12:53:00,60.0,54.0,29.94,SE,128,1.0,8.0,80,0.11,,,0.14,,2013-06-30 18:53:00,
2013-06-30 13:01:00,60.0,55.0,29.94,SE,128,2.0,5.0,83,0.02,,,0.14,,2013-06-30 19:01:00,
2013-06-30 13:11:00,58.0,53.0,29.94,West,266,5.0,8.0,84,0.03,,,0.15,,2013-06-30 19:11:00,
2013-06-30 13:22:00,59.0,54.0,29.96,WNW,295,1.0,8.0,85,0.03,,,0.15,,2013-06-30 19:22:00,
2013-06-30 13:33:00,60.0,55.0,29.95,ESE,114,1.0,5.0,83,0.03,,,0.15,,2013-06-30 19:33:00,
2013-06-30 13:43:00,61.0,55.0,29.95,East,81,1.0,6.0,81,0.02,,,0.15,,2013-06-30 19:43:00,
2013-06-30 13:53:00,62.0,55.0,29.93,SE,128,1.0,5.0,78,0.02,,,0.15,,2013-06-30 19:53:00,
2013-06-30 14:01:00,63.0,55.0,29.92,WNW,298,1.0,6.0,76,0.01,,,0.15,,2013-06-30 20:01:00,
2013-06-30 14:11:00,64.0,54.0,29.91,South,179,1.0,6.0,70,0.00,,,0.15,,2013-06-30 20:11:00,
2013-06-30 14:22:00,64.0,53.0,29.90,South,180,0.0,5.0,68,0.00,,,0.15,,2013-06-30 20:22:00,
2013-06-30 14:34:00,64.0,53.0,29.90,SSW,206,1.0,6.0,67,0.00,,,0.15,,2013-06-30 20:34:00,
2013-06-30 14:42:00,64.0,53.0,29.90,West,261,1.0,3.0,67,0.00,,,0.15,,2013-06-30 20:42:00,
2013-06-30 14:52:00,64.0,52.0,29.90,West,262,1.0,5.0,66,0.00,,,0.15,,2013-06-30 20:52:00,
2013-06-30 15:01:00,65.0,53.0,29.89,ENE,74,2.0,5.0,66,0.00,,,0.15,,2013-06-30 21:01:00,
2013-06-30 15:11:00,64.0,53.0,29.89,ENE,75,4.0,8.0,67,0.00,,,0.15,,2013-06-30 21:11:00,
2013-06-30 15:22:00,64.0,53.0,29.90,East,93,6.0,10.0,68,0.00,,,0.15,,2013-06-30 21:22:00,
2013-06-30 15:34:00,63.0,53.0,29.91,ENE,77,7.0,12.0,69,0.00,,,0.15,,2013-06-30 21:34:00,
2013-06-30 15:43:00,63.0,53.0,29.93,East,92,6.0,10.0,69,0.00,,,0.15,,2013-06-30 21:43:00,
2013-06-30 15:53:00,63.0,53.0,29.93,ENE,69,6.0,10.0,69,0.00,,,0.15,,2013-06-30 21:53:00,
2013-06-30 16:01:00,63.0,52.0,29.93,ENE,59,3.0,7.0,67,0.00,,,0.15,,2013-06-30 22:01:00,
2013-06-30 16:11:00,63.0,52.0,29.94,ESE,109,3.0,7.0,68,0.00,,,0.15,,2013-06-30 22:11:00,
2013-06-30 16:22:00,64.0,52.0,29.93,NE,51,5.0,8.0,65,0.00,,,0.15,,2013-06-30 22:22:00,
2013-06-30 16:34:00,64.0,52.0,29.92,ENE,59,5.0,6.0,65,0.00,,,0.15,,2013-06-30 22:34:00,
2013-06-30 16:43:00,65.0,52.0,29.91,ENE,60,2.0,6.0,63,0.00,,,0.15,,2013-06-30 22:43:00,
2013-06-30 16:52:00,66.0,53.0,29.90,North,9,2.0,6.0,62,0.00,,,0.14,,2013-06-30 22:52:00,
2013-06-30 17:01:00,66.0,51.0,29.90,North,352,0.0,5.0,59,0.00,,,0.14,,2013-06-30 23:01:00,
2013-06-30 17:11:00,67.0,53.0,29.90,North,5,3.0,6.0,61,0.00,,,0.14,,2013-06-30 23:11:00,
2013-06-30 17:22:00,67.0,52.0,29.90,SE,127,1.0,6.0,58,0.00,,,0.14,,2013-06-30 23:22:00,
2013-06-30 17:33:00,67.0,50.0,29.89,SE,128,1.0,3.0,55,0.00,,,0.14,,2013-06-30 23:33:00,
2013-06-30 17:43:00,67.0,52.0,29.88,NE,51,7.0,12.0,58,0.00,,,0.14,,2013-06-30 23:43:00,
2013-06-30 17:53:00,66.0,52.0,29.89,NNE,31,4.0,8.0,61,0.00,,,0.14,,2013-06-30 23:53:00,
2013-06-30 18:01:00,66.0,51.0,29.89,NE,50,3.0,8.0,59,0.00,,,0.14,,2013-07-01 00:01:00,
2013-06-30 18:11:00,66.0,49.0,29.88,North,358,6.0,10.0,55,0.00,,,0.14,,2013-07-01 00:11:00,
2013-06-30 18:22:00,66.0,49.0,29.89,North,5,6.0,12.0,55,0.00,,,0.14,,2013-07-01 00:22:00,
2013-06-30 18:33:00,66.0,50.0,29.89,NNE,19,6.0,12.0,57,0.00,,,0.14,,2013-07-01 00:33:00,
2013-06-30 18:42:00,65.0,50.0,29.90,NNE,19,6.0,12.0,59,0.00,,,0.14,,2013-07-01 00:42:00,
2013-06-30 18:52:00,64.0,50.0,29.91,NNE,27,3.0,8.0,60,0.00,,,0.14,,2013-07-01 00:52:00,
2013-06-30 19:01:00,64.0,50.0,29.91,NE,38,6.0,8.0,61,0.00,,,0.14,,2013-07-01 01:01:00,
2013-06-30 19:11:00,64.0,50.0,29.91,NE,38,6.0,8.0,61,0.00,,,0.14,,2013-07-01 01:11:00,
2013-06-30 19:22:00,64.0,50.0,29.91,NNE,13,3.0,10.0,60,0.00,,,0.14,,2013-07-01 01:22:00,
2013-06-30 19:33:00,64.0,50.0,29.93,NNE,26,3.0,6.0,61,0.00,,,0.14,,2013-07-01 01:33:00,
2013-06-30 19:42:00,63.0,49.0,29.89,NNE,28,2.0,5.0,61,0.00,,,0.13,,2013-07-01 01:42:00,
2013-06-30 19:52:00,63.0,50.0,29.91,North,2,3.0,6.0,63,0.00,,,0.13,,2013-07-01 01:52:00,
2013-06-30 20:02:00,63.0,51.0,29.91,NNE,13,3.0,7.0,65,0.00,,,0.13,,2013-07-01 02:02:00,
2013-06-30 20:11:00,63.0,53.0,29.91,NNE,15,1.0,3.0,70,0.00,,,0.13,,2013-07-01 02:11:00,
2013-06-30 20:22:00,62.0,52.0,29.88,East,87,1.0,3.0,71,0.00,,,0.13,,2013-07-01 02:22:00,
2013-06-30 20:43:00,63.0,54.0,29.85,ESE,122,1.0,3.0,73,0.00,,,0.13,,2013-07-01 02:43:00,
2013-06-30 20:53:00,62.0,53.0,29.86,ESE,122,0.0,1.0,72,0.00,,,0.13,,2013-07-01 02:53:00,
2013-06-30 21:01:00,61.0,52.0,29.87,ESE,122,0.0,3.0,72,0.00,,,0.13,,2013-07-01 03:01:00,
2013-06-30 21:11:00,60.0,51.0,29.88,ESE,122,1.0,3.0,73,0.00,,,0.13,,2013-07-01 03:11:00,
2013-06-30 21:23:00,60.0,51.0,29.89,SSE,168,1.0,2.0,73,0.00,,,0.13,,2013-07-01 03:23:00,
2013-06-30 21:33:00,59.0,51.0,29.89,SSE,168,1.0,3.0,76,0.00,,,0.13,,2013-07-01 03:33:00,
2013-06-30 21:43:00,58.0,51.0,29.88,NNE,16,3.0,5.0,77,0.00,,,0.13,,2013-07-01 03:43:00,
2013-06-30 21:52:00,58.0,51.0,29.90,North,8,2.0,3.0,78,0.00,,,0.13,,2013-07-01 03:52:00,
2013-06-30 22:01:00,58.0,51.0,29.90,North,8,0.0,2.0,78,0.00,,,0.13,,2013-07-01 04:01:00,
2013-06-30 22:11:00,58.0,50.0,29.90,NNW,327,1.0,3.0,76,0.00,,,0.13,,2013-07-01 04:11:00,
2013-06-30 22:22:00,58.0,50.0,29.90,NNW,327,1.0,3.0,76,0.00,,,0.13,,2013-07-01 04:22:00,
2013-06-30 22:32:00,58.0,50.0,29.90,NNW,327,1.0,3.0,76,0.00,,,0.13,,2013-07-01 04:32:00,
2013-06-30 22:43:00,58.0,50.0,29.90,NNW,327,1.0,3.0,76,0.00,,,0.13,,2013-07-01 04:43:00,
2013-06-30 22:53:00,57.0,51.0,29.87,West,272,0.0,1.0,80,0.00,,,0.13,,2013-07-01 04:53:00,
2013-06-30 23:01:00,57.0,52.0,29.89,West,272,0.0,1.0,82,0.00,,,0.13,,2013-07-01 05:01:00,
2013-06-30 23:11:00,56.0,51.0,29.89,West,272,1.0,2.0,83,0.00,,,0.13,,2013-07-01 05:11:00,
2013-06-30 23:22:00,56.0,51.0,29.88,West,272,1.0,2.0,83,0.00,,,0.13,,2013-07-01 05:22:00,
2013-06-30 23:33:00,55.0,50.0,29.92,West,272,2.0,3.0,83,0.00,,,0.13,,2013-07-01 05:33:00,
2013-06-30 23:42:00,55.0,51.0,29.97,West,272,0.0,3.0,85,0.00,,,0.13,,2013-07-01 05:42:00,
2013-06-30 23:52:00,55.0,51.0,29.97,West,272,2.0,3.0,85,0.00,,,0.13,,2013-07-01 05:52:00,